GFSNE_500_temp_033.txt.gz
Temp
-20 -20 -20 -21 -21 -22 -22 -23 -23 -24 -24 -25 -27 -29 -30 -30 -30 -30 -31 -31 -31 -31 -31 -31 -31 -31 -31 -31 -30 -30 -30 -30 -29 -29 -29 -28 -28 -28
-20 -21 -21 -21 -22 -22 -23 -23 -24 -25 -26 -28 -30 -30 -30 -30 -30 -31 -31 -31 -32 -32 -32 -32 -32 -32 -32 -32 -31 -31 -30 -30 -29 -29 -28 -28 -28 -28
-21 -21 -22 -22 -23 -23 -24 -25 -25 -27 -28 -30 -30 -30 -30 -31 -31 -32 -32 -32 -32 -33 -33 -33 -33 -33 -32 -32 -32 -31 -31 -30 -29 -29 -28 -28 -28 -28
-22 -22 -23 -23 -24 -24 -25 -26 -27 -29 -30 -30 -30 -31 -31 -31 -32 -32 -32 -33 -33 -33 -33 -33 -33 -33 -32 -32 -32 -31 -31 -30 -29 -29 -28 -28 -28 -28
-23 -23 -23 -24 -25 -25 -26 -27 -29 -30 -30 -31 -31 -31 -31 -32 -32 -33 -33 -33 -33 -33 -33 -33 -33 -32 -32 -32 -32 -31 -30 -30 -30 -29 -29 -29 -29 -29
-23 -23 -24 -25 -25 -26 -27 -29 -30 -30 -31 -31 -31 -31 -31 -32 -33 -33 -34 -34 -34 -33 -33 -33 -32 -32 -32 -32 -32 -32 -31 -30 -30 -30 -30 -30 -30 -30
-23 -24 -25 -25 -26 -27 -28 -30 -30 -31 -31 -31 -31 -31 -32 -33 -33 -33 -34 -34 -34 -34 -33 -33 -32 -33 -32 -32 -32 -32 -31 -31 -31 -31 -30 -30 -30 -30
-24 -25 -25 -26 -27 -28 -29 -30 -31 -31 -31 -31 -31 -32 -32 -33 -33 -34 -34 -34 -34 -34 -34 -34 -33 -33 -33 -33 -33 -32 -32 -32 -31 -31 -31 -30 -30 -30
-25 -25 -26 -27 -28 -29 -31 -31 -31 -31 -32 -32 -32 -32 -33 -33 -34 -34 -34 -35 -34 -34 -34 -34 -33 -34 -33 -33 -33 -33 -32 -32 -32 -31 -31 -31 -30 -30
-25 -26 -27 -28 -30 -31 -31 -31 -32 -32 -32 -32 -32 -33 -33 -34 -34 -35 -35 -35 -35 -34 -33 -34 -34 -34 -34 -33 -33 -33 -33 -32 -32 -32 -31 -31 -31 -30
-26 -27 -28 -29 -31 -31 -32 -32 -32 -32 -32 -32 -32 -33 -34 -34 -34 -35 -35 -35 -35 -35 -34 -34 -34 -35 -35 -34 -33 -33 -33 -32 -32 -32 -32 -31 -31 -31
-26 -28 -29 -31 -32 -32 -32 -32 -32 -33 -32 -32 -33 -34 -34 -34 -35 -35 -35 -35 -35 -35 -35 -35 -34 -34 -35 -34 -34 -33 -33 -32 -32 -32 -32 -32 -32 -31
-27 -30 -31 -32 -32 -32 -32 -32 -32 -33 -33 -33 -33 -34 -34 -35 -35 -35 -35 -35 -35 -35 -35 -34 -35 -35 -35 -34 -34 -34 -33 -33 -34 -34 -34 -34 -33 -32
-30 -31 -32 -32 -32 -32 -32 -32 -32 -33 -33 -34 -34 -35 -35 -35 -35 -35 -36 -36 -35 -35 -36 -35 -35 -35 -35 -35 -34 -34 -34 -35 -36 -37 -37 -36 -35 -34
-32 -32 -32 -32 -32 -32 -32 -32 -33 -33 -34 -34 -35 -35 -35 -35 -36 -36 -36 -36 -36 -35 -36 -36 -35 -36 -35 -35 -35 -35 -36 -37 -38 -37 -37 -37 -36 -35
-32 -32 -32 -32 -32 -32 -33 -33 -33 -34 -34 -34 -35 -35 -35 -35 -36 -36 -36 -36 -36 -36 -36 -36 -36 -36 -35 -35 -36 -36 -37 -38 -37 -37 -36 -36 -35 -35
-32 -32 -32 -32 -33 -33 -33 -34 -33 -34 -35 -35 -35 -36 -36 -36 -36 -36 -36 -36 -36 -36 -36 -36 -36 -36 -36 -36 -36 -37 -37 -37 -37 -36 -36 -35 -35 -35
-32 -32 -32 -33 -33 -34 -34 -34 -34 -35 -35 -35 -35 -36 -36 -36 -36 -36 -36 -37 -37 -37 -37 -37 -36 -36 -36 -36 -36 -37 -37 -37 -36 -36 -36 -35 -35 -35
-33 -33 -33 -33 -34 -34 -34 -35 -35 -37 -36 -36 -36 -36 -36 -36 -37 -37 -37 -37 -37 -37 -37 -37 -36 -36 -36 -36 -36 -37 -37 -36 -36 -36 -36 -35 -35 -34
-34 -34 -34 -34 -34 -35 -36 -35 -36 -37 -37 -36 -36 -36 -36 -37 -37 -37 -37 -37 -37 -37 -37 -37 -36 -36 -36 -36 -36 -37 -37 -36 -36 -36 -36 -35 -35 -35
-34 -34 -34 -34 -35 -35 -35 -35 -36 -37 -37 -36 -36 -36 -36 -37 -37 -37 -37 -37 -37 -37 -37 -37 -37 -36 -36 -36 -36 -37 -37 -36 -36 -36 -36 -35 -35 -35
-34 -34 -35 -35 -35 -35 -35 -36 -36 -37 -37 -37 -36 -37 -37 -37 -37 -37 -37 -37 -37 -37 -37 -37 -37 -36 -36 -36 -36 -36 -37 -36 -36 -36 -36 -35 -35 -35
-34 -35 -36 -36 -35 -36 -36 -36 -37 -37 -37 -37 -37 -37 -37 -37 -37 -37 -37 -37 -37 -37 -37 -37 -37 -37 -36 -36 -36 -36 -37 -36 -36 -36 -36 -36 -35 -35

GFSNE_500_temp_036.txt.gz
Temp
-19 -20 -20 -21 -21 -21 -21 -22 -23 -23 -23 -24 -24 -25 -25 -27 -29 -30 -30 -30 -30 -31 -32 -32 -32 -32 -32 -32 -32 -31 -31 -30 -30 -30 -29 -28 -27 -27
-20 -21 -21 -21 -21 -21 -22 -23 -23 -23 -24 -25 -25 -26 -28 -29 -30 -31 -31 -31 -31 -31 -32 -32 -32 -32 -33 -33 -32 -32 -32 -31 -31 -31 -30 -30 -29 -28
-21 -21 -21 -21 -22 -22 -23 -23 -24 -24 -25 -25 -26 -28 -29 -30 -31 -31 -31 -31 -31 -32 -32 -32 -33 -33 -33 -33 -33 -33 -32 -32 -32 -31 -31 -31 -30 -29
-21 -21 -22 -22 -22 -23 -23 -24 -24 -25 -25 -26 -28 -30 -30 -31 -31 -31 -31 -31 -31 -32 -32 -33 -33 -33 -33 -33 -33 -33 -32 -32 -32 -31 -31 -30 -30 -29
-21 -21 -21 -22 -22 -23 -24 -24 -25 -25 -26 -27 -29 -30 -31 -31 -31 -31 -31 -31 -32 -32 -32 -33 -33 -33 -33 -32 -33 -33 -32 -32 -32 -31 -31 -30 -30 -29
-21 -21 -21 -22 -23 -24 -25 -25 -26 -26 -28 -29 -30 -31 -31 -31 -31 -31 -31 -32 -33 -33 -33 -33 -33 -33 -33 -33 -33 -32 -32 -32 -32 -31 -31 -30 -30 -29
-21 -22 -22 -23 -24 -25 -25 -26 -26 -28 -29 -30 -31 -32 -32 -32 -32 -32 -32 -33 -33 -33 -34 -34 -33 -33 -32 -33 -33 -33 -32 -32 -32 -32 -32 -31 -30 -29
-22 -23 -23 -24 -25 -25 -26 -27 -28 -30 -31 -31 -32 -32 -32 -32 -32 -32 -32 -33 -34 -34 -34 -34 -34 -33 -33 -33 -33 -33 -33 -33 -32 -32 -32 -31 -30 -30
-22 -23 -24 -25 -25 -26 -27 -28 -29 -31 -31 -32 -32 -32 -32 -32 -32 -33 -33 -34 -34 -34 -34 -35 -34 -34 -33 -33 -33 -33 -33 -33 -32 -32 -31 -31 -30 -30
-23 -24 -25 -25 -26 -27 -28 -29 -31 -32 -32 -32 -32 -32 -32 -32 -33 -33 -34 -34 -34 -35 -34 -35 -34 -34 -33 -33 -33 -34 -34 -33 -33 -32 -32 -31 -31 -31
-24 -25 -26 -26 -27 -28 -30 -31 -32 -32 -32 -32 -32 -32 -32 -33 -33 -33 -34 -34 -35 -35 -35 -35 -35 -34 -34 -33 -33 -33 -34 -33 -33 -32 -32 -32 -32 -31
-25 -25 -26 -27 -29 -30 -31 -32 -32 -32 -32 -32 -32 -33 -33 -33 -33 -34 -35 -35 -35 -35 -35 -35 -35 -34 -35 -33 -34 -34 -34 -33 -33 -33 -32 -32 -32 -31
-25 -26 -27 -28 -30 -31 -32 -32 -32 -33 -33 -33 -33 -33 -33 -33 -34 -34 -35 -35 -35 -35 -35 -36 -35 -35 -34 -35 -35 -34 -34 -34 -33 -33 -33 -33 -33 -32
-26 -27 -28 -30 -31 -32 -32 -32 -33 -33 -33 -33 -33 -34 -34 -34 -35 -35 -35 -35 -35 -35 -36 -36 -36 -35 -34 -35 -35 -35 -34 -34 -35 -36 -36 -36 -36 -35
-28 -29 -30 -30 -31 -32 -32 -33 -33 -33 -33 -34 -34 -34 -35 -35 -35 -36 -36 -36 -36 -36 -36 -36 -36 -36 -35 -35 -35 -35 -35 -36 -37 -36 -36 -36 -36 -36
-28 -29 -30 -31 -31 -32 -32 -33 -33 -33 -34 -34 -35 -35 -35 -36 -36 -36 -36 -36 -36 -36 -36 -36 -36 -36 -35 -35 -36 -35 -36 -37 -36 -36 -36 -35 -35 -35
-29 -30 -30 -31 -31 -32 -33 -34 -34 -35 -35 -35 -35 -36 -36 -36 -36 -36 -36 -36 -36 -36 -36 -36 -36 -36 -36 -36 -36 -36 -36 -36 -36 -36 -36 -35 -35 -34
-30 -31 -30 -31 -31 -33 -34 -34 -34 -35 -36 -36 -36 -37 -36 -36 -36 -36 -36 -37 -36 -36 -36 -36 -36 -36 -36 -36 -36 -36 -37 -36 -36 -36 -36 -35 -35 -34
-31 -31 -31 -32 -33 -34 -34 -34 -35 -35 -36 -36 -37 -37 -37 -36 -37 -37 -37 -37 -37 -37 -37 -36 -37 -36 -36 -36 -36 -36 -37 -36 -36 -36 -36 -35 -35 -34
-31 -32 -32 -33 -34 -34 -34 -35 -35 -36 -36 -37 -37 -37 -37 -37 -36 -37 -37 -37 -37 -37 -37 -37 -37 -37 -36 -36 -36 -36 -37 -36 -36 -36 -36 -35 -35 -35
-32 -32 -33 -33 -34 -34 -35 -35 -36 -36 -36 -36 -37 -37 -37 -37 -37 -37 -37 -37 -37 -37 -37 -37 -37 -37 -36 -36 -36 -36 -36 -36 -36 -36 -36 -35 -35 -35
-33 -33 -33 -34 -34 -35 -36 -36 -36 -36 -36 -37 -37 -38 -37 -37 -37 -37 -37 -37 -37 -37 -37 -37 -37 -37 -37 -36 -36 -36 -37 -36 -36 -36 -36 -35 -35 -35
-33 -33 -34 -34 -35 -35 -36 -36 -36 -36 -37 -37 -38 -38 -37 -37 -37 -37 -37 -37 -37 -37 -37 -37 -37 -37 -37 -36 -36 -36 -36 -36 -36 -36 -36 -35 -35 -35

GFSNE_500_temp_042.txt.gz
Temp
-18 -18 -19 -19 -19 -19 -20 -20 -20 -21 -21 -21 -22 -22 -22 -22 -22 -23 -23 -25 -26 -26 -27 -28 -30 -31 -32 -32 -31 -31 -31 -32 -31 -31 -31 -31 -31 -31
-18 -18 -19 -19 -19 -20 -20 -20 -21 -21 -21 -22 -22 -22 -22 -23 -24 -24 -25 -26 -27 -28 -29 -30 -32 -32 -32 -32 -31 -32 -32 -32 -32 -31 -31 -32 -32 -32
-19 -18 -19 -19 -20 -20 -20 -20 -21 -22 -22 -22 -22 -22 -23 -24 -25 -25 -26 -27 -29 -30 -31 -31 -32 -32 -32 -32 -32 -32 -32 -32 -32 -32 -32 -32 -32 -32
-19 -19 -19 -20 -21 -20 -20 -21 -22 -22 -22 -22 -22 -23 -24 -25 -26 -27 -28 -29 -30 -31 -32 -32 -32 -32 -32 -32 -32 -33 -33 -33 -33 -32 -32 -32 -32 -32
-19 -20 -20 -20 -21 -21 -22 -22 -22 -22 -22 -22 -22 -23 -24 -26 -27 -28 -29 -30 -31 -32 -32 -32 -32 -32 -32 -32 -33 -33 -33 -33 -33 -32 -32 -32 -32 -32
-19 -19 -20 -21 -21 -21 -22 -22 -22 -23 -23 -23 -24 -25 -26 -27 -29 -29 -30 -31 -32 -32 -33 -33 -33 -33 -32 -32 -33 -33 -33 -34 -33 -33 -33 -33 -33 -32
-19 -20 -20 -21 -21 -22 -22 -22 -23 -23 -23 -24 -25 -26 -27 -29 -31 -32 -32 -32 -33 -33 -33 -33 -33 -33 -33 -33 -33 -34 -34 -34 -34 -33 -33 -33 -33 -33
-20 -20 -21 -21 -22 -22 -22 -23 -23 -23 -24 -26 -27 -28 -29 -31 -32 -33 -33 -33 -33 -33 -33 -33 -34 -33 -33 -34 -34 -34 -34 -34 -34 -33 -34 -34 -33 -33
-20 -20 -21 -22 -22 -22 -22 -23 -23 -24 -25 -26 -27 -28 -30 -31 -33 -33 -33 -33 -33 -34 -34 -34 -34 -34 -34 -34 -35 -35 -34 -34 -34 -34 -33 -34 -33 -33
-20 -21 -21 -22 -22 -22 -23 -23 -23 -24 -26 -27 -29 -30 -31 -31 -32 -33 -34 -34 -34 -34 -34 -34 -34 -34 -35 -35 -35 -35 -35 -34 -34 -34 -34 -34 -34 -33
-21 -21 -21 -22 -22 -23 -23 -23 -24 -25 -27 -28 -30 -31 -31 -32 -32 -33 -34 -34 -34 -35 -35 -35 -35 -35 -35 -35 -35 -35 -35 -35 -34 -34 -34 -34 -34 -33
-21 -22 -22 -22 -23 -23 -24 -24 -25 -26 -27 -28 -30 -31 -31 -32 -33 -34 -35 -35 -36 -35 -36 -36 -35 -35 -35 -36 -36 -35 -35 -35 -34 -34 -34 -34 -33 -33
-21 -22 -22 -23 -23 -24 -24 -25 -26 -27 -28 -29 -30 -31 -31 -32 -33 -34 -36 -36 -36 -36 -36 -36 -36 -36 -36 -36 -36 -36 -35 -35 -35 -35 -34 -34 -34 -34
-21 -22 -22 -23 -24 -24 -25 -27 -27 -28 -29 -30 -30 -31 -32 -32 -33 -35 -35 -36 -36 -37 -37 -37 -36 -36 -36 -36 -36 -36 -36 -35 -35 -35 -35 -35 -35 -35
-22 -22 -23 -24 -24 -26 -27 -28 -29 -30 -31 -31 -31 -32 -32 -33 -34 -35 -35 -35 -37 -37 -37 -37 -37 -36 -36 -36 -36 -36 -36 -36 -35 -35 -36 -35 -35 -35
-23 -24 -24 -25 -26 -27 -28 -29 -30 -31 -31 -31 -32 -33 -33 -34 -34 -36 -36 -37 -37 -37 -37 -37 -37 -36 -36 -36 -36 -36 -36 -36 -36 -36 -36 -35 -35 -35
-24 -24 -25 -27 -27 -29 -30 -31 -32 -32 -32 -32 -32 -33 -34 -34 -35 -36 -37 -37 -37 -37 -37 -37 -37 -37 -37 -37 -36 -36 -36 -36 -36 -36 -36 -35 -35 -35
-25 -26 -27 -28 -29 -30 -31 -32 -33 -32 -32 -32 -33 -34 -35 -35 -35 -37 -37 -37 -37 -37 -37 -37 -37 -37 -37 -37 -36 -36 -36 -36 -36 -36 -36 -35 -35 -35
-27 -28 -29 -30 -31 -31 -32 -32 -33 -33 -33 -33 -35 -35 -35 -36 -36 -37 -37 -37 -37 -37 -37 -37 -37 -37 -37 -37 -37 -36 -36 -36 -36 -36 -36 -36 -35 -35
-29 -30 -31 -31 -32 -32 -32 -33 -33 -33 -34 -34 -35 -36 -36 -36 -37 -37 -37 -38 -38 -37 -37 -37 -37 -37 -37 -37 -37 -37 -36 -36 -36 -36 -36 -35 -35 -35
-31 -31 -31 -32 -32 -33 -33 -34 -34 -33 -34 -35 -35 -36 -37 -37 -37 -38 -38 -38 -38 -37 -37 -37 -37 -37 -37 -37 -37 -37 -37 -36 -36 -36 -36 -36 -35 -36
-31 -32 -32 -33 -33 -33 -34 -34 -34 -34 -35 -35 -36 -36 -37 -37 -38 -38 -38 -37 -38 -38 -37 -37 -37 -37 -37 -37 -37 -37 -37 -36 -36 -36 -36 -36 -36 -36
-32 -33 -33 -33 -34 -34 -34 -34 -34 -35 -35 -36 -36 -36 -37 -37 -38 -38 -38 -38 -38 -38 -38 -38 -37 -37 -37 -37 -37 -37 -37 -36 -36 -36 -36 -36 -36 -36

GFSNE_500_temp_048.txt.gz
Temp
-16 -16 -16 -16 -17 -17 -18 -17 -18 -18 -19 -19 -20 -20 -20 -20 -21 -21 -21 -22 -22 -22 -22 -23 -23 -24 -25 -27 -29 -29 -30 -31 -32 -32 -33 -33 -33 -32
-17 -17 -17 -17 -17 -18 -18 -18 -19 -19 -19 -19 -20 -20 -20 -21 -21 -22 -22 -22 -22 -23 -23 -24 -25 -26 -28 -30 -31 -32 -32 -33 -33 -33 -33 -33 -33 -33
-17 -17 -17 -17 -18 -18 -18 -19 -19 -19 -19 -19 -20 -20 -20 -21 -21 -22 -22 -22 -23 -23 -24 -25 -26 -28 -30 -31 -33 -33 -33 -33 -33 -33 -33 -33 -33 -33
-17 -17 -17 -17 -17 -18 -18 -19 -19 -19 -19 -19 -20 -20 -21 -21 -22 -22 -23 -23 -23 -24 -25 -26 -28 -29 -31 -32 -33 -33 -33 -34 -34 -34 -34 -33 -33 -33
-17 -17 -17 -18 -18 -18 -19 -19 -19 -19 -19 -19 -20 -20 -21 -22 -22 -23 -23 -24 -24 -25 -27 -28 -29 -31 -31 -32 -33 -33 -34 -34 -34 -34 -34 -34 -34 -33
-17 -18 -18 -18 -18 -19 -19 -19 -19 -19 -20 -20 -20 -21 -21 -22 -22 -23 -23 -24 -25 -26 -28 -30 -31 -32 -33 -33 -34 -34 -34 -34 -34 -35 -34 -34 -34 -34
-18 -18 -18 -19 -19 -19 -19 -19 -20 -20 -20 -20 -21 -21 -22 -22 -23 -23 -24 -25 -25 -28 -29 -31 -32 -33 -33 -35 -35 -35 -35 -35 -35 -35 -34 -35 -34 -34
-18 -18 -18 -19 -19 -19 -20 -19 -20 -20 -20 -21 -21 -22 -22 -23 -23 -23 -24 -25 -25 -27 -31 -31 -32 -32 -35 -35 -36 -35 -35 -36 -36 -35 -35 -35 -35 -35
-18 -19 -19 -19 -19 -20 -20 -20 -20 -21 -21 -22 -22 -22 -22 -23 -23 -24 -25 -26 -28 -30 -31 -31 -32 -33 -34 -35 -36 -36 -36 -36 -36 -35 -35 -35 -35 -35
-19 -19 -19 -19 -20 -20 -20 -20 -21 -22 -22 -23 -23 -23 -24 -24 -25 -26 -26 -28 -29 -31 -32 -32 -32 -33 -35 -35 -35 -36 -36 -36 -36 -36 -36 -36 -35 -35
-19 -19 -20 -20 -20 -20 -20 -21 -21 -22 -22 -23 -23 -24 -24 -25 -26 -27 -28 -30 -31 -31 -32 -32 -32 -34 -34 -35 -36 -36 -36 -36 -36 -36 -36 -36 -35 -35
-19 -20 -20 -20 -20 -20 -21 -21 -21 -22 -22 -23 -24 -24 -25 -26 -27 -29 -29 -31 -31 -32 -32 -32 -33 -34 -35 -36 -36 -36 -36 -36 -36 -36 -36 -36 -35 -35
-20 -20 -20 -20 -20 -21 -21 -21 -22 -22 -23 -24 -24 -25 -26 -27 -28 -30 -31 -32 -32 -32 -32 -33 -34 -35 -36 -37 -37 -37 -37 -36 -36 -36 -36 -36 -35 -35
-20 -20 -20 -21 -21 -21 -22 -22 -23 -23 -24 -24 -25 -26 -26 -27 -29 -30 -31 -32 -33 -33 -33 -34 -35 -36 -36 -37 -37 -37 -37 -37 -36 -36 -36 -36 -36 -36
-20 -21 -21 -21 -22 -22 -23 -23 -24 -25 -25 -25 -26 -26 -28 -29 -30 -31 -32 -33 -33 -34 -34 -35 -35 -36 -37 -37 -37 -37 -37 -37 -37 -36 -36 -36 -36 -36
-21 -21 -21 -22 -23 -23 -23 -24 -25 -26 -26 -26 -27 -29 -30 -30 -31 -32 -33 -33 -33 -35 -35 -35 -36 -36 -37 -37 -37 -37 -37 -37 -37 -36 -36 -36 -36 -36
-21 -21 -22 -23 -23 -24 -24 -25 -26 -26 -27 -28 -30 -30 -31 -31 -32 -33 -34 -34 -34 -36 -36 -37 -37 -37 -37 -37 -37 -37 -37 -37 -37 -36 -36 -36 -36 -36
-22 -23 -23 -24 -24 -25 -26 -26 -26 -27 -29 -30 -31 -31 -31 -32 -33 -34 -34 -34 -35 -36 -37 -38 -38 -38 -38 -38 -37 -37 -37 -37 -37 -36 -36 -36 -36 -36
-23 -24 -24 -24 -25 -26 -26 -26 -27 -29 -31 -31 -31 -32 -32 -33 -33 -34 -34 -35 -36 -37 -38 -38 -38 -38 -38 -38 -37 -37 -37 -37 -37 -37 -36 -36 -36 -36
-24 -24 -25 -25 -26 -26 -27 -28 -30 -31 -31 -32 -32 -32 -33 -33 -34 -35 -35 -36 -37 -37 -38 -38 -38 -38 -38 -38 -37 -37 -37 -37 -37 -37 -37 -36 -37 -36
-25 -26 -26 -26 -27 -27 -28 -30 -31 -32 -32 -32 -33 -33 -33 -35 -35 -35 -36 -36 -37 -38 -38 -38 -38 -38 -38 -38 -38 -37 -37 -37 -37 -37 -37 -37 -37 -36
-26 -26 -26 -27 -28 -29 -31 -31 -32 -32 -32 -33 -33 -34 -35 -35 -36 -36 -36 -37 -38 -38 -38 -38 -39 -38 -38 -38 -38 -38 -37 -37 -37 -37 -37 -37 -37 -37
-26 -26 -27 -29 -30 -31 -31 -32 -32 -33 -33 -33 -34 -35 -36 -36 -36 -36 -37 -37 -38 -38 -38 -38 -38 -38 -38 -38 -38 -38 -38 -38 -37 -37 -37 -37 -37 -37

GFSNE_500_temp_051.txt.gz
Temp
-17 -17 -17 -16 -16 -16 -16 -16 -16 -17 -17 -18 -18 -19 -19 -19 -19 -19 -19 -20 -20 -21 -21 -22 -22 -23 -23 -24 -24 -25 -27 -29 -30 -31 -32 -32 -33 -33
-17 -16 -16 -16 -16 -16 -17 -17 -17 -17 -18 -18 -19 -19 -19 -19 -20 -20 -20 -20 -21 -22 -22 -22 -23 -23 -24 -25 -26 -27 -29 -30 -32 -32 -33 -33 -33 -33
-17 -16 -16 -16 -17 -17 -17 -17 -18 -18 -18 -18 -19 -19 -19 -20 -20 -20 -21 -21 -21 -22 -22 -23 -24 -24 -25 -26 -27 -29 -30 -31 -32 -33 -33 -33 -34 -34
-17 -17 -17 -17 -17 -17 -17 -18 -18 -19 -19 -18 -19 -20 -20 -20 -20 -21 -21 -21 -22 -22 -23 -23 -24 -25 -26 -27 -29 -31 -32 -32 -33 -34 -34 -35 -34 -34
-17 -17 -17 -17 -17 -17 -17 -18 -19 -19 -19 -19 -19 -20 -20 -20 -21 -21 -21 -22 -22 -23 -23 -24 -25 -26 -27 -29 -30 -32 -32 -33 -34 -35 -35 -35 -35 -35
-17 -17 -17 -17 -17 -18 -18 -19 -19 -19 -19 -19 -19 -20 -20 -20 -20 -21 -21 -22 -22 -23 -24 -24 -26 -27 -28 -30 -31 -32 -33 -34 -35 -35 -35 -35 -36 -35
-17 -17 -17 -18 -18 -19 -19 -19 -19 -19 -20 -20 -20 -20 -21 -21 -21 -21 -22 -22 -23 -24 -24 -24 -26 -26 -29 -31 -32 -32 -33 -34 -35 -35 -35 -36 -35 -36
-18 -18 -18 -18 -19 -19 -19 -19 -19 -20 -20 -20 -21 -20 -20 -21 -21 -22 -22 -22 -22 -24 -24 -24 -26 -26 -29 -31 -32 -32 -32 -34 -35 -35 -36 -35 -36 -36
-18 -18 -18 -19 -19 -19 -19 -19 -19 -20 -20 -20 -20 -21 -21 -22 -22 -22 -23 -23 -23 -25 -25 -24 -27 -28 -31 -32 -32 -32 -33 -34 -35 -35 -35 -36 -36 -36
-18 -18 -18 -19 -19 -19 -19 -20 -20 -20 -20 -21 -21 -21 -21 -22 -23 -23 -23 -24 -25 -25 -27 -26 -28 -30 -31 -32 -32 -33 -34 -35 -35 -36 -36 -36 -36 -36
-18 -18 -19 -19 -20 -20 -20 -20 -20 -21 -21 -21 -22 -22 -23 -23 -24 -24 -25 -26 -26 -25 -28 -27 -30 -31 -32 -32 -33 -33 -35 -36 -36 -36 -36 -36 -36 -36
-18 -19 -19 -19 -19 -20 -20 -20 -20 -21 -21 -22 -22 -23 -24 -24 -25 -26 -26 -27 -26 -26 -29 -29 -31 -32 -32 -33 -34 -34 -36 -36 -36 -36 -36 -37 -36 -36
-19 -19 -19 -19 -20 -21 -21 -21 -21 -21 -21 -22 -22 -23 -24 -25 -26 -27 -27 -27 -28 -28 -30 -31 -31 -33 -33 -34 -35 -35 -36 -36 -37 -37 -37 -36 -36 -36
-19 -19 -19 -20 -20 -20 -21 -21 -21 -21 -22 -22 -23 -24 -25 -25 -27 -27 -27 -28 -29 -30 -31 -31 -32 -33 -34 -35 -35 -36 -36 -37 -37 -37 -37 -36 -37 -36
-19 -20 -20 -20 -20 -20 -21 -21 -21 -22 -23 -24 -24 -25 -26 -26 -27 -27 -28 -29 -30 -31 -32 -32 -33 -34 -35 -36 -36 -37 -37 -37 -37 -37 -37 -37 -36 -36
-20 -20 -20 -20 -21 -21 -21 -22 -23 -24 -24 -25 -25 -26 -26 -27 -27 -28 -29 -30 -31 -32 -33 -33 -34 -35 -36 -36 -37 -38 -38 -38 -37 -37 -37 -37 -37 -36
-20 -20 -21 -21 -21 -22 -22 -23 -24 -25 -25 -26 -26 -26 -27 -28 -29 -30 -31 -31 -32 -32 -34 -34 -35 -35 -36 -37 -38 -38 -37 -37 -37 -37 -37 -37 -37 -36
-20 -21 -21 -22 -22 -23 -23 -24 -25 -26 -26 -26 -27 -27 -28 -30 -31 -31 -32 -32 -32 -33 -34 -35 -36 -37 -38 -38 -38 -38 -38 -38 -37 -37 -37 -37 -36 -36
-21 -22 -22 -23 -23 -24 -25 -25 -26 -26 -27 -27 -28 -29 -31 -31 -31 -32 -32 -33 -34 -34 -35 -35 -37 -38 -38 -38 -38 -38 -38 -38 -37 -37 -37 -37 -37 -37
-22 -22 -23 -24 -25 -25 -26 -26 -27 -27 -27 -28 -30 -31 -31 -32 -32 -32 -33 -33 -35 -35 -36 -36 -37 -38 -38 -38 -38 -38 -38 -38 -38 -37 -37 -37 -37 -37
-23 -24 -24 -25 -26 -26 -26 -27 -27 -28 -29 -31 -31 -32 -32 -32 -33 -33 -34 -34 -36 -36 -36 -37 -37 -38 -38 -39 -38 -38 -38 -38 -38 -37 -37 -37 -37 -37
-25 -26 -26 -26 -27 -27 -27 -27 -28 -31 -31 -31 -32 -32 -33 -33 -33 -34 -34 -35 -36 -36 -37 -38 -38 -39 -39 -38 -38 -38 -38 -38 -38 -37 -37 -37 -37 -37
-26 -27 -27 -27 -27 -27 -28 -30 -31 -31 -32 -32 -33 -33 -34 -34 -34 -34 -36 -36 -37 -37 -37 -38 -38 -39 -39 -39 -38 -38 -38 -38 -38 -38 -38 -37 -37 -37

GFSNE_500_temp_057.txt.gz
Temp
-15 -16 -16 -16 -16 -16 -16 -17 -17 -17 -17 -17 -17 -17 -17 -18 -18 -17 -18 -18 -18 -18 -19 -19 -20 -20 -20 -20 -20 -21 -21 -21 -22 -23 -24 -24 -24 -25
-16 -16 -16 -16 -16 -16 -17 -17 -17 -17 -17 -17 -17 -18 -18 -18 -18 -18 -18 -18 -19 -19 -19 -20 -20 -20 -20 -21 -21 -21 -21 -22 -23 -23 -24 -24 -25 -26
-16 -16 -16 -16 -16 -17 -17 -17 -17 -17 -17 -17 -18 -18 -18 -17 -18 -18 -18 -19 -19 -19 -20 -20 -20 -20 -21 -21 -21 -22 -22 -23 -23 -24 -24 -25 -25 -27
-16 -16 -16 -16 -17 -17 -17 -17 -17 -17 -17 -18 -18 -18 -18 -18 -18 -18 -19 -19 -19 -20 -20 -20 -21 -21 -21 -21 -22 -22 -23 -24 -24 -24 -24 -25 -26 -28
-16 -16 -16 -16 -16 -17 -17 -17 -17 -17 -17 -18 -18 -18 -18 -18 -18 -18 -19 -19 -20 -20 -20 -21 -21 -21 -22 -22 -23 -24 -24 -24 -24 -25 -25 -25 -27 -29
-16 -16 -16 -16 -16 -17 -17 -17 -17 -17 -18 -18 -18 -18 -18 -18 -18 -19 -19 -19 -20 -21 -21 -21 -21 -22 -22 -23 -23 -24 -24 -25 -25 -25 -25 -25 -28 -30
-16 -16 -16 -17 -17 -17 -17 -17 -17 -18 -18 -18 -18 -18 -18 -19 -19 -19 -19 -20 -20 -21 -21 -22 -22 -22 -23 -24 -24 -24 -24 -25 -25 -25 -25 -26 -29 -30
-17 -17 -17 -17 -17 -17 -17 -18 -18 -18 -18 -18 -18 -19 -19 -19 -19 -20 -20 -20 -21 -21 -21 -22 -22 -22 -23 -24 -24 -24 -25 -25 -25 -25 -26 -28 -30 -31
-17 -17 -17 -17 -18 -18 -18 -18 -18 -18 -19 -19 -19 -19 -20 -20 -20 -20 -20 -21 -21 -21 -21 -21 -22 -22 -23 -24 -25 -25 -25 -25 -25 -25 -28 -29 -31 -32
-17 -17 -18 -18 -18 -18 -18 -18 -19 -19 -19 -19 -19 -20 -20 -20 -20 -21 -21 -20 -21 -22 -22 -21 -23 -23 -24 -25 -26 -26 -26 -26 -26 -28 -30 -31 -32 -33
-17 -18 -18 -18 -18 -18 -18 -19 -19 -19 -20 -20 -20 -20 -21 -20 -21 -21 -20 -21 -21 -22 -23 -23 -23 -24 -25 -26 -26 -26 -26 -27 -28 -30 -31 -32 -33 -34
-18 -18 -17 -18 -18 -19 -19 -20 -20 -20 -20 -20 -20 -21 -21 -21 -21 -21 -21 -21 -22 -23 -24 -23 -24 -25 -25 -26 -27 -27 -27 -29 -30 -31 -32 -33 -34 -36
-18 -19 -18 -18 -19 -20 -20 -20 -20 -20 -20 -21 -20 -20 -21 -21 -21 -21 -21 -22 -23 -24 -25 -25 -26 -27 -27 -27 -28 -28 -29 -30 -31 -32 -33 -35 -35 -36
-18 -19 -19 -19 -20 -20 -20 -21 -21 -21 -21 -21 -21 -20 -20 -21 -21 -21 -22 -23 -24 -25 -26 -27 -27 -28 -28 -28 -28 -30 -31 -31 -32 -33 -35 -35 -36 -37
-18 -19 -19 -19 -20 -20 -21 -21 -20 -21 -21 -21 -21 -21 -21 -21 -22 -23 -23 -24 -25 -26 -27 -28 -28 -28 -29 -29 -30 -31 -32 -32 -33 -34 -35 -36 -37 -37
-19 -19 -20 -20 -21 -20 -21 -21 -21 -21 -21 -21 -21 -21 -21 -22 -22 -24 -25 -25 -26 -27 -28 -29 -29 -29 -29 -31 -31 -32 -33 -33 -34 -35 -36 -37 -37 -37
-20 -21 -21 -21 -21 -21 -21 -21 -21 -21 -21 -21 -21 -21 -22 -23 -24 -25 -25 -26 -27 -28 -28 -29 -30 -30 -31 -32 -32 -33 -33 -34 -35 -37 -37 -37 -37 -37
-20 -21 -21 -21 -21 -21 -21 -21 -21 -21 -21 -21 -22 -22 -23 -24 -25 -26 -27 -27 -28 -28 -29 -30 -31 -32 -32 -32 -33 -33 -34 -35 -36 -37 -38 -38 -37 -37
-21 -21 -21 -21 -21 -21 -21 -21 -21 -21 -22 -23 -23 -24 -25 -25 -26 -27 -28 -28 -29 -29 -30 -32 -32 -32 -33 -33 -34 -34 -35 -36 -37 -38 -38 -38 -37 -37
-21 -21 -21 -21 -21 -21 -22 -22 -22 -23 -24 -24 -25 -25 -26 -27 -28 -28 -29 -29 -30 -31 -32 -32 -33 -33 -34 -34 -34 -35 -37 -37 -38 -38 -38 -38 -38 -37
-21 -22 -22 -22 -22 -22 -23 -23 -24 -24 -25 -26 -27 -27 -28 -29 -29 -29 -30 -31 -31 -32 -32 -33 -34 -34 -35 -35 -35 -37 -37 -38 -39 -39 -38 -38 -38 -38
-22 -22 -23 -23 -23 -23 -23 -24 -25 -25 -26 -27 -28 -28 -29 -29 -30 -31 -32 -32 -33 -33 -34 -34 -35 -35 -35 -36 -37 -38 -38 -39 -39 -39 -38 -38 -38 -38
-22 -23 -23 -23 -24 -24 -24 -25 -26 -27 -28 -28 -29 -30 -31 -31 -32 -32 -33 -33 -34 -34 -35 -35 -36 -36 -36 -37 -38 -38 -39 -39 -39 -39 -38 -38 -38 -38

GFSNE_500_temp_060.txt.gz
Temp
-16 -16 -16 -15 -16 -16 -16 -16 -15 -16 -16 -17 -17 -16 -17 -17 -17 -17 -17 -18 -18 -18 -18 -18 -18 -18 -18 -18 -18 -19 -19 -20 -20 -20 -21 -21 -22 -23
-16 -16 -15 -15 -16 -16 -15 -15 -16 -15 -16 -16 -17 -17 -17 -17 -17 -17 -17 -18 -18 -18 -18 -18 -18 -18 -19 -19 -19 -20 -20 -20 -21 -21 -21 -22 -23 -23
-15 -15 -15 -15 -16 -16 -16 -16 -16 -16 -16 -16 -17 -17 -17 -17 -17 -18 -17 -18 -18 -18 -18 -18 -18 -19 -19 -19 -20 -20 -21 -21 -21 -21 -22 -22 -23 -23
-15 -15 -15 -15 -15 -16 -16 -16 -16 -16 -16 -17 -17 -17 -17 -17 -17 -17 -18 -18 -18 -18 -18 -19 -19 -19 -20 -20 -20 -21 -21 -21 -21 -22 -22 -23 -23 -24
-15 -15 -15 -15 -16 -16 -16 -16 -16 -16 -17 -17 -17 -17 -17 -17 -17 -18 -18 -18 -18 -19 -19 -19 -20 -20 -20 -21 -21 -20 -21 -21 -22 -22 -22 -23 -24 -24
-15 -15 -15 -16 -16 -16 -16 -16 -16 -16 -17 -17 -17 -17 -17 -17 -18 -18 -19 -19 -19 -19 -19 -20 -20 -21 -21 -21 -21 -21 -21 -22 -22 -23 -24 -24 -24 -25
-16 -16 -15 -15 -15 -16 -16 -16 -16 -17 -17 -17 -17 -17 -18 -18 -19 -19 -19 -19 -19 -20 -20 -20 -20 -21 -21 -21 -21 -22 -22 -23 -23 -24 -25 -25 -25 -25
-15 -16 -16 -16 -16 -16 -16 -16 -16 -15 -17 -17 -18 -18 -18 -18 -19 -19 -19 -19 -19 -20 -20 -20 -21 -21 -21 -21 -22 -23 -23 -23 -24 -25 -25 -25 -25 -25
-16 -16 -16 -16 -16 -17 -17 -17 -17 -17 -17 -18 -18 -18 -18 -18 -19 -19 -20 -20 -20 -20 -20 -20 -21 -21 -21 -22 -22 -23 -23 -24 -24 -25 -26 -26 -26 -26
-16 -16 -16 -17 -17 -17 -17 -17 -17 -17 -17 -18 -18 -18 -19 -19 -20 -20 -20 -20 -21 -21 -21 -20 -21 -21 -21 -22 -23 -24 -24 -24 -25 -26 -26 -27 -27 -27
-16 -16 -16 -16 -16 -17 -17 -17 -16 -17 -18 -18 -19 -19 -19 -20 -20 -20 -20 -21 -21 -21 -21 -21 -21 -21 -21 -22 -24 -25 -25 -26 -26 -27 -27 -27 -28 -29
-17 -16 -16 -17 -17 -17 -18 -18 -18 -18 -18 -18 -18 -19 -20 -20 -20 -20 -21 -20 -20 -21 -21 -21 -22 -22 -22 -23 -24 -26 -26 -26 -27 -28 -28 -28 -29 -31
-16 -17 -17 -17 -17 -18 -19 -18 -18 -18 -18 -18 -19 -20 -21 -21 -21 -20 -21 -21 -21 -21 -21 -21 -22 -22 -23 -23 -25 -27 -27 -28 -28 -28 -29 -30 -31 -32
-17 -17 -18 -18 -18 -17 -18 -19 -18 -19 -19 -20 -21 -21 -21 -20 -20 -20 -21 -21 -21 -21 -22 -22 -22 -23 -24 -25 -27 -28 -29 -29 -29 -29 -30 -31 -32 -33
-17 -18 -18 -18 -18 -17 -18 -18 -18 -19 -20 -20 -20 -20 -20 -20 -20 -21 -21 -21 -21 -22 -22 -23 -24 -24 -26 -27 -27 -29 -29 -29 -30 -31 -32 -32 -33 -34
-17 -17 -18 -18 -18 -18 -18 -19 -19 -19 -20 -20 -20 -20 -20 -21 -21 -21 -21 -22 -22 -23 -23 -24 -26 -26 -27 -28 -28 -29 -30 -30 -32 -32 -33 -34 -35 -35
-18 -18 -18 -18 -18 -19 -19 -20 -20 -20 -20 -20 -21 -21 -21 -22 -22 -22 -22 -22 -23 -24 -25 -26 -27 -28 -28 -29 -30 -31 -31 -32 -33 -33 -34 -35 -36 -37
-18 -18 -19 -19 -19 -19 -20 -20 -20 -20 -21 -21 -21 -21 -21 -22 -22 -23 -23 -24 -25 -26 -27 -28 -28 -29 -30 -30 -31 -32 -33 -33 -34 -34 -35 -36 -37 -37
-19 -20 -20 -20 -20 -20 -21 -20 -21 -21 -21 -21 -22 -22 -22 -23 -23 -24 -25 -25 -26 -27 -28 -29 -30 -30 -31 -31 -32 -33 -33 -34 -34 -35 -36 -37 -38 -38
-20 -21 -21 -21 -21 -21 -21 -21 -21 -22 -22 -22 -22 -23 -24 -24 -24 -25 -26 -27 -27 -28 -29 -30 -31 -31 -32 -32 -33 -34 -34 -35 -36 -36 -37 -38 -38 -38
-21 -21 -21 -21 -21 -21 -21 -21 -22 -22 -23 -23 -23 -23 -24 -24 -25 -26 -26 -27 -29 -30 -30 -31 -32 -33 -33 -34 -34 -35 -35 -36 -37 -38 -39 -39 -39 -38
-21 -21 -22 -22 -22 -22 -22 -22 -23 -23 -23 -23 -24 -24 -25 -26 -27 -28 -29 -30 -31 -31 -32 -32 -33 -34 -35 -35 -35 -36 -36 -37 -38 -39 -39 -39 -39 -38
-23 -23 -22 -22 -23 -23 -23 -23 -23 -24 -24 -25 -25 -26 -27 -28 -30 -30 -31 -31 -32 -32 -33 -34 -35 -35 -35 -36 -36 -37 -37 -38 -38 -39 -39 -39 -39 -38

GFSNE_500_temp_063.txt.gz
Temp
-15 -15 -15 -16 -16 -16 -16 -16 -15 -15 -15 -16 -16 -16 -16 -16 -16 -17 -16 -16 -17 -17 -17 -17 -17 -18 -18 -18 -18 -18 -18 -18 -18 -19 -19 -19 -19 -20
-16 -16 -16 -15 -16 -15 -16 -16 -15 -15 -14 -15 -16 -16 -16 -16 -16 -16 -16 -16 -17 -17 -17 -18 -18 -18 -18 -18 -19 -19 -19 -18 -19 -19 -19 -19 -20 -20
-15 -15 -15 -15 -16 -16 -16 -16 -15 -16 -15 -16 -16 -15 -16 -16 -16 -16 -17 -17 -17 -17 -17 -18 -17 -18 -18 -19 -19 -19 -18 -19 -19 -19 -20 -20 -20 -21
-15 -15 -15 -16 -16 -16 -15 -15 -16 -16 -16 -15 -15 -16 -16 -16 -16 -17 -17 -17 -17 -17 -17 -18 -18 -18 -18 -19 -19 -19 -19 -19 -19 -20 -20 -20 -20 -21
-15 -15 -15 -15 -15 -15 -15 -15 -15 -16 -16 -16 -16 -16 -16 -16 -16 -17 -17 -17 -17 -17 -17 -18 -18 -18 -19 -19 -19 -19 -19 -20 -20 -20 -21 -21 -21 -21
-15 -15 -15 -15 -15 -15 -15 -15 -16 -15 -15 -16 -16 -16 -16 -16 -16 -17 -17 -18 -18 -17 -18 -18 -18 -19 -19 -20 -19 -20 -20 -20 -20 -21 -21 -21 -21 -21
-15 -15 -15 -15 -15 -15 -15 -15 -15 -16 -16 -16 -16 -16 -16 -16 -17 -17 -17 -18 -18 -18 -19 -19 -19 -19 -19 -19 -20 -20 -21 -21 -21 -21 -21 -22 -22 -22
-15 -16 -15 -16 -15 -15 -16 -16 -16 -16 -16 -16 -16 -16 -17 -17 -17 -17 -18 -18 -19 -19 -19 -19 -19 -19 -20 -20 -20 -21 -21 -21 -21 -21 -22 -22 -23 -23
-15 -15 -15 -15 -15 -15 -16 -16 -16 -16 -16 -17 -16 -16 -16 -17 -16 -17 -18 -19 -19 -19 -20 -19 -19 -20 -20 -21 -21 -21 -21 -21 -21 -22 -22 -23 -24 -24
-16 -16 -16 -16 -16 -15 -16 -16 -16 -16 -16 -16 -16 -16 -16 -17 -17 -18 -18 -19 -19 -19 -19 -20 -20 -20 -20 -20 -21 -21 -21 -22 -22 -22 -23 -24 -25 -25
-16 -16 -16 -16 -16 -16 -16 -16 -16 -16 -16 -17 -17 -17 -17 -17 -18 -18 -18 -18 -18 -19 -20 -20 -20 -20 -20 -20 -21 -21 -22 -22 -22 -23 -24 -25 -26 -27
-17 -16 -16 -16 -16 -16 -16 -16 -16 -17 -16 -16 -17 -18 -17 -17 -18 -18 -18 -19 -18 -19 -20 -20 -20 -20 -20 -21 -21 -22 -22 -23 -23 -24 -25 -26 -27 -28
-17 -17 -16 -16 -16 -16 -17 -17 -17 -17 -18 -18 -17 -17 -18 -18 -18 -18 -18 -18 -19 -20 -20 -20 -20 -21 -21 -21 -22 -22 -23 -24 -25 -26 -26 -27 -28 -29
-17 -17 -17 -17 -17 -17 -17 -17 -17 -17 -18 -18 -18 -18 -18 -18 -18 -18 -19 -20 -20 -20 -20 -21 -21 -22 -21 -21 -22 -23 -24 -25 -26 -27 -28 -29 -29 -30
-18 -18 -18 -18 -18 -17 -18 -17 -17 -17 -18 -18 -18 -18 -18 -18 -18 -19 -20 -20 -20 -21 -21 -21 -21 -21 -22 -23 -23 -24 -25 -27 -28 -29 -29 -30 -31 -31
-18 -18 -18 -18 -18 -18 -17 -18 -17 -18 -18 -18 -18 -18 -19 -19 -20 -20 -20 -21 -21 -21 -21 -22 -22 -23 -23 -24 -24 -25 -27 -28 -29 -30 -30 -31 -32 -32
-17 -17 -17 -18 -18 -18 -18 -18 -18 -18 -18 -18 -19 -19 -20 -20 -20 -21 -21 -21 -21 -21 -22 -23 -23 -23 -24 -24 -25 -27 -28 -29 -30 -31 -32 -32 -33 -33
-18 -18 -18 -18 -18 -18 -19 -19 -19 -19 -19 -19 -20 -20 -21 -21 -21 -21 -21 -21 -22 -22 -23 -23 -24 -24 -25 -26 -28 -28 -30 -31 -31 -32 -33 -34 -34 -35
-18 -19 -19 -19 -19 -19 -19 -20 -20 -20 -20 -21 -21 -21 -21 -21 -21 -21 -22 -22 -22 -23 -24 -24 -25 -26 -26 -27 -29 -31 -31 -32 -33 -33 -34 -35 -35 -36
-20 -20 -20 -20 -21 -21 -21 -21 -21 -21 -21 -21 -21 -21 -21 -22 -22 -23 -23 -23 -23 -24 -24 -25 -26 -27 -28 -30 -30 -31 -33 -32 -33 -34 -35 -36 -36 -37
-21 -21 -21 -21 -21 -21 -21 -21 -22 -21 -22 -22 -22 -22 -23 -23 -23 -23 -24 -24 -24 -25 -26 -27 -29 -30 -31 -31 -31 -32 -34 -34 -34 -35 -36 -37 -38 -38
-21 -22 -21 -22 -22 -22 -22 -22 -22 -23 -23 -23 -23 -23 -23 -23 -24 -24 -25 -26 -27 -28 -29 -30 -31 -31 -32 -32 -32 -33 -35 -35 -35 -36 -37 -39 -39 -39
-22 -22 -22 -23 -23 -24 -23 -24 -23 -23 -23 -23 -24 -24 -25 -26 -26 -27 -28 -29 -30 -30 -31 -31 -32 -32 -33 -34 -34 -35 -35 -36 -36 -37 -38 -39 -39 -39

GFSNE_500_temp_069.txt.gz
Temp
-15 -15 -15 -15 -15 -15 -16 -16 -15 -15 -15 -16 -16 -16 -16 -16 -16 -16 -15 -15 -16 -16 -16 -16 -16 -16 -16 -16 -16 -17 -17 -17 -17 -17 -17 -18 -18 -18
-15 -15 -15 -15 -15 -15 -16 -16 -15 -15 -15 -16 -16 -17 -16 -16 -16 -16 -16 -16 -16 -16 -16 -16 -16 -16 -16 -16 -17 -17 -17 -17 -18 -17 -18 -18 -18 -19
-15 -15 -15 -15 -15 -15 -16 -15 -15 -15 -15 -16 -16 -16 -16 -16 -16 -16 -16 -16 -16 -16 -16 -16 -16 -16 -16 -16 -17 -17 -17 -18 -18 -18 -19 -18 -19 -19
-15 -15 -16 -16 -15 -16 -16 -16 -16 -16 -16 -15 -16 -16 -16 -16 -16 -16 -16 -16 -15 -16 -16 -16 -16 -16 -16 -17 -17 -17 -17 -17 -18 -19 -19 -19 -19 -19
-16 -15 -16 -15 -15 -16 -16 -16 -16 -16 -16 -16 -16 -16 -15 -16 -16 -16 -16 -16 -16 -16 -16 -16 -16 -16 -16 -17 -17 -17 -17 -18 -18 -19 -19 -19 -19 -19
-16 -16 -16 -15 -16 -16 -16 -16 -16 -16 -16 -16 -16 -16 -15 -16 -16 -16 -16 -16 -16 -16 -16 -17 -17 -17 -17 -17 -18 -18 -17 -18 -19 -19 -19 -19 -19 -19
-16 -15 -15 -16 -16 -16 -16 -16 -16 -16 -16 -16 -15 -16 -16 -16 -16 -17 -16 -16 -16 -16 -16 -17 -17 -17 -17 -17 -17 -18 -18 -18 -18 -18 -19 -19 -19 -19
-16 -16 -16 -16 -16 -16 -16 -16 -16 -16 -16 -16 -16 -16 -16 -16 -16 -16 -16 -16 -17 -17 -17 -18 -17 -16 -17 -18 -18 -18 -18 -18 -18 -19 -20 -20 -19 -19
-17 -17 -17 -17 -17 -18 -17 -17 -16 -17 -16 -16 -16 -17 -16 -16 -16 -16 -17 -17 -17 -17 -17 -17 -17 -17 -17 -18 -18 -18 -18 -18 -20 -20 -20 -19 -19 -20
-17 -16 -16 -16 -17 -17 -17 -17 -17 -17 -17 -17 -17 -17 -17 -17 -17 -16 -17 -17 -17 -17 -17 -17 -18 -17 -18 -18 -18 -18 -19 -19 -19 -19 -19 -19 -19 -20
-16 -16 -16 -17 -17 -18 -17 -17 -17 -17 -17 -17 -17 -17 -17 -17 -17 -17 -17 -17 -17 -18 -17 -17 -18 -18 -18 -18 -18 -19 -19 -20 -19 -19 -19 -19 -20 -20
-17 -16 -16 -17 -17 -17 -17 -17 -17 -17 -17 -17 -17 -17 -17 -16 -17 -17 -17 -18 -18 -18 -18 -18 -18 -18 -18 -18 -19 -19 -20 -20 -19 -20 -20 -21 -21 -21
-17 -16 -16 -16 -16 -16 -16 -16 -17 -17 -17 -17 -17 -16 -17 -17 -17 -18 -18 -18 -18 -18 -18 -18 -18 -18 -19 -19 -20 -20 -20 -20 -20 -21 -21 -22 -22 -22
-16 -16 -16 -16 -16 -16 -17 -16 -16 -16 -16 -16 -17 -17 -17 -17 -17 -18 -18 -18 -18 -18 -19 -19 -19 -19 -19 -20 -20 -20 -20 -20 -20 -21 -21 -22 -22 -23
-17 -17 -17 -17 -16 -16 -16 -16 -16 -16 -17 -16 -17 -17 -17 -17 -18 -18 -18 -19 -18 -18 -19 -20 -20 -20 -20 -20 -20 -20 -20 -21 -21 -21 -22 -22 -22 -23
-17 -17 -16 -16 -16 -16 -16 -17 -17 -16 -17 -17 -18 -18 -18 -19 -19 -19 -19 -20 -20 -20 -20 -20 -20 -20 -20 -20 -20 -21 -21 -21 -22 -22 -22 -22 -23 -24
-16 -17 -16 -16 -16 -16 -17 -17 -17 -17 -18 -17 -18 -19 -19 -20 -20 -20 -20 -20 -20 -20 -20 -20 -20 -20 -20 -20 -20 -21 -21 -21 -22 -22 -22 -22 -23 -25
-16 -17 -18 -18 -17 -17 -18 -18 -18 -18 -18 -19 -19 -20 -20 -20 -20 -20 -20 -20 -20 -20 -21 -21 -21 -21 -21 -22 -22 -22 -22 -22 -22 -23 -23 -23 -25 -28
-19 -19 -18 -18 -19 -19 -19 -20 -20 -20 -20 -20 -20 -21 -20 -21 -21 -20 -21 -21 -21 -21 -22 -22 -22 -22 -22 -22 -22 -23 -23 -22 -23 -24 -25 -27 -29 -30
-21 -20 -20 -20 -21 -21 -21 -21 -21 -21 -21 -21 -21 -21 -21 -21 -21 -21 -21 -22 -22 -22 -22 -23 -22 -22 -22 -22 -22 -22 -24 -25 -27 -27 -28 -29 -31 -32
-21 -20 -21 -21 -21 -21 -21 -21 -21 -21 -22 -22 -22 -22 -22 -22 -22 -22 -23 -23 -23 -23 -23 -23 -23 -23 -24 -24 -25 -26 -27 -28 -29 -30 -30 -31 -32 -34
-21 -21 -21 -22 -22 -22 -21 -21 -22 -22 -22 -22 -22 -22 -23 -23 -23 -23 -23 -23 -23 -24 -24 -25 -26 -26 -27 -28 -28 -29 -30 -30 -31 -31 -31 -33 -34 -35
-22 -23 -23 -23 -22 -22 -22 -23 -23 -23 -23 -23 -23 -23 -23 -23 -24 -24 -25 -26 -26 -27 -28 -29 -28 -30 -30 -30 -30 -31 -31 -31 -32 -32 -33 -34 -35 -36

GFSNE_500_temp_072.txt.gz
Temp
-14 -14 -14 -15 -15 -15 -15 -16 -16 -15 -15 -16 -16 -16 -16 -16 -17 -16 -16 -16 -16 -16 -16 -16 -16 -16 -16 -16 -16 -16 -16 -16 -16 -17 -17 -17 -17 -17
-15 -15 -15 -15 -16 -16 -16 -16 -16 -15 -14 -16 -16 -16 -16 -16 -16 -16 -16 -16 -16 -16 -16 -16 -16 -16 -16 -16 -16 -16 -17 -17 -17 -17 -17 -17 -17 -17
-15 -15 -15 -15 -15 -15 -15 -16 -16 -15 -14 -15 -16 -16 -16 -16 -16 -16 -16 -16 -16 -16 -17 -16 -16 -16 -16 -16 -16 -16 -17 -17 -17 -17 -17 -17 -18 -18
-15 -15 -15 -15 -15 -15 -15 -15 -15 -15 -15 -15 -15 -15 -16 -16 -16 -16 -16 -16 -16 -16 -16 -17 -16 -16 -16 -16 -16 -17 -17 -17 -17 -17 -17 -18 -18 -18
-15 -15 -15 -15 -15 -15 -15 -16 -16 -15 -15 -15 -14 -15 -16 -16 -16 -16 -16 -16 -17 -17 -17 -17 -17 -17 -16 -17 -17 -17 -17 -17 -17 -17 -18 -18 -18 -18
-15 -15 -15 -15 -16 -16 -16 -16 -16 -15 -15 -15 -15 -15 -16 -16 -16 -16 -17 -17 -17 -17 -17 -17 -17 -17 -17 -16 -17 -17 -17 -18 -17 -17 -18 -18 -18 -18
-15 -15 -15 -15 -16 -16 -16 -16 -16 -16 -16 -16 -16 -16 -16 -16 -16 -16 -16 -16 -16 -16 -16 -16 -17 -17 -17 -17 -17 -17 -18 -17 -17 -18 -18 -18 -18 -19
-16 -16 -16 -16 -16 -16 -17 -16 -16 -16 -16 -16 -16 -16 -16 -16 -16 -17 -17 -16 -17 -17 -16 -16 -17 -17 -17 -17 -17 -17 -17 -17 -18 -18 -18 -18 -18 -19
-16 -16 -17 -17 -17 -17 -17 -17 -17 -16 -16 -17 -16 -16 -16 -17 -17 -17 -17 -17 -16 -17 -16 -16 -16 -16 -17 -17 -17 -17 -18 -18 -18 -18 -18 -18 -18 -19
-17 -17 -17 -17 -17 -18 -18 -17 -17 -17 -17 -17 -17 -17 -17 -17 -17 -17 -17 -17 -17 -17 -16 -16 -17 -17 -17 -17 -18 -18 -18 -18 -18 -18 -18 -18 -19 -20
-17 -16 -16 -17 -17 -17 -18 -18 -18 -17 -17 -16 -16 -17 -17 -17 -17 -17 -17 -16 -17 -16 -16 -17 -17 -17 -17 -17 -18 -18 -18 -18 -18 -18 -19 -19 -20 -20
-16 -16 -16 -16 -16 -17 -17 -17 -18 -17 -17 -16 -16 -16 -17 -16 -16 -17 -17 -17 -17 -16 -17 -17 -17 -17 -18 -18 -18 -18 -18 -18 -18 -18 -19 -20 -21 -21
-17 -16 -16 -16 -16 -17 -17 -17 -17 -18 -17 -17 -16 -16 -16 -16 -17 -16 -16 -17 -17 -16 -17 -17 -18 -18 -18 -18 -19 -19 -19 -19 -18 -19 -20 -20 -20 -20
-16 -17 -16 -16 -17 -17 -17 -17 -17 -17 -17 -17 -16 -17 -16 -16 -16 -16 -16 -16 -17 -17 -17 -18 -18 -18 -19 -19 -19 -19 -20 -20 -20 -20 -20 -20 -21 -21
-17 -17 -17 -17 -16 -16 -16 -16 -16 -17 -17 -16 -16 -16 -16 -17 -16 -17 -17 -17 -18 -18 -18 -18 -19 -19 -19 -20 -20 -20 -21 -21 -20 -20 -20 -21 -21 -21
-15 -16 -17 -18 -17 -16 -16 -17 -17 -17 -17 -17 -17 -17 -17 -17 -17 -17 -18 -18 -18 -18 -19 -19 -20 -20 -20 -20 -20 -20 -20 -20 -20 -21 -21 -21 -22 -22
-17 -18 -17 -17 -17 -17 -17 -16 -17 -17 -17 -17 -17 -17 -18 -18 -18 -19 -19 -20 -20 -21 -21 -21 -21 -21 -20 -21 -21 -21 -21 -21 -21 -21 -21 -22 -22 -22
-18 -18 -18 -18 -18 -18 -18 -18 -18 -19 -19 -19 -20 -20 -20 -20 -21 -21 -21 -21 -21 -21 -21 -21 -21 -21 -21 -21 -21 -21 -21 -21 -21 -22 -22 -22 -21 -22
-20 -19 -20 -19 -20 -20 -19 -19 -20 -20 -20 -21 -21 -21 -21 -21 -21 -21 -21 -21 -21 -21 -21 -21 -22 -22 -21 -22 -22 -22 -22 -22 -22 -22 -22 -22 -22 -24
-21 -21 -21 -20 -21 -21 -21 -20 -20 -21 -21 -20 -21 -21 -21 -21 -21 -21 -21 -21 -21 -22 -22 -22 -22 -22 -22 -22 -22 -22 -23 -23 -23 -23 -23 -24 -26 -27
-22 -22 -22 -22 -22 -22 -22 -22 -22 -22 -22 -22 -22 -22 -22 -22 -22 -22 -22 -22 -22 -22 -22 -23 -22 -23 -22 -22 -23 -23 -23 -24 -25 -25 -26 -27 -28 -29
-22 -22 -22 -22 -22 -22 -22 -22 -22 -22 -22 -22 -22 -23 -23 -23 -23 -23 -23 -23 -23 -23 -23 -24 -24 -24 -24 -25 -25 -26 -26 -27 -28 -28 -29 -29 -30 -31
-24 -24 -23 -23 -23 -23 -23 -23 -23 -23 -23 -23 -24 -24 -24 -24 -24 -24 -24 -24 -25 -25 -26 -27 -28 -27 -27 -28 -29 -29 -29 -29 -30 -31 -31 -30 -32 -33

GFSNE_500_temp_075.txt.gz
Temp
-14 -15 -15 -15 -14 -14 -15 -15 -15 -15 -16 -16 -16 -16 -16 -16 -16 -17 -16 -16 -16 -16 -16 -16 -16 -17 -16 -16 -16 -16 -16 -16 -16 -16 -16 -16 -17 -17
-15 -15 -15 -15 -15 -15 -15 -15 -16 -16 -15 -16 -16 -16 -16 -16 -16 -16 -16 -16 -16 -16 -16 -16 -17 -17 -16 -16 -16 -16 -16 -16 -16 -16 -16 -16 -16 -17
-15 -15 -15 -15 -15 -15 -15 -15 -15 -15 -15 -15 -16 -16 -16 -16 -16 -16 -16 -16 -16 -16 -16 -16 -16 -16 -16 -16 -17 -17 -16 -16 -16 -16 -17 -16 -17 -17
-15 -14 -14 -15 -15 -15 -15 -15 -15 -15 -15 -15 -15 -16 -16 -16 -16 -16 -16 -16 -16 -16 -16 -17 -16 -17 -17 -17 -17 -17 -16 -16 -17 -16 -17 -17 -17 -17
-15 -15 -15 -15 -15 -15 -15 -15 -15 -15 -15 -15 -15 -15 -16 -16 -16 -16 -16 -16 -17 -17 -17 -17 -17 -17 -17 -17 -17 -17 -17 -17 -16 -17 -17 -17 -18 -18
-16 -16 -16 -15 -15 -15 -15 -15 -15 -15 -15 -15 -15 -15 -16 -16 -15 -16 -16 -17 -16 -17 -17 -16 -17 -17 -17 -17 -17 -17 -17 -17 -17 -17 -17 -17 -17 -18
-15 -16 -16 -15 -15 -15 -15 -15 -16 -15 -16 -15 -15 -15 -15 -16 -16 -16 -16 -16 -16 -16 -16 -16 -17 -17 -17 -17 -17 -17 -17 -17 -17 -17 -17 -17 -17 -18
-15 -15 -16 -16 -16 -16 -16 -16 -16 -16 -16 -16 -16 -15 -16 -16 -16 -16 -16 -17 -16 -17 -17 -17 -17 -17 -17 -18 -18 -18 -17 -17 -17 -18 -18 -18 -18 -18
-16 -16 -16 -16 -16 -16 -17 -17 -17 -16 -16 -16 -16 -16 -16 -16 -16 -16 -16 -17 -17 -17 -17 -17 -16 -17 -16 -17 -17 -17 -17 -17 -17 -17 -18 -18 -18 -18
-16 -17 -16 -17 -17 -17 -17 -17 -17 -17 -16 -16 -16 -15 -15 -16 -16 -16 -17 -17 -16 -17 -16 -16 -17 -17 -17 -17 -17 -17 -17 -17 -17 -17 -17 -18 -18 -19
-16 -16 -16 -16 -17 -17 -17 -17 -17 -16 -16 -17 -17 -16 -15 -16 -16 -16 -16 -17 -16 -16 -16 -17 -17 -17 -17 -17 -17 -17 -17 -17 -17 -17 -18 -18 -18 -18
-16 -16 -16 -15 -16 -16 -17 -17 -17 -17 -17 -16 -16 -17 -16 -16 -16 -16 -17 -17 -16 -17 -16 -16 -16 -16 -17 -17 -17 -17 -17 -17 -18 -18 -18 -18 -18 -18
-16 -16 -16 -16 -16 -16 -16 -16 -16 -16 -17 -17 -16 -16 -16 -16 -17 -17 -17 -17 -16 -16 -16 -16 -17 -16 -17 -17 -17 -17 -17 -18 -18 -18 -19 -19 -19 -19
-17 -17 -16 -14 -15 -15 -15 -16 -16 -16 -17 -16 -16 -16 -16 -16 -16 -17 -17 -16 -16 -17 -17 -17 -17 -17 -17 -17 -17 -18 -18 -18 -18 -19 -19 -20 -20 -21
-17 -17 -16 -16 -16 -16 -17 -17 -17 -16 -17 -16 -17 -16 -17 -17 -16 -16 -16 -17 -17 -16 -17 -17 -17 -17 -17 -18 -19 -19 -19 -19 -20 -21 -21 -21 -21 -21
-18 -18 -17 -17 -18 -18 -17 -18 -17 -16 -17 -16 -17 -17 -17 -17 -17 -17 -18 -17 -18 -17 -17 -18 -19 -19 -19 -20 -21 -21 -21 -21 -21 -21 -21 -21 -21 -21
-19 -19 -19 -19 -18 -18 -18 -19 -18 -18 -18 -18 -18 -18 -18 -18 -18 -18 -18 -18 -19 -20 -20 -20 -21 -21 -21 -21 -21 -21 -21 -21 -21 -21 -21 -22 -22 -22
-20 -21 -20 -20 -20 -20 -20 -20 -19 -19 -19 -20 -20 -20 -20 -20 -21 -21 -21 -21 -21 -21 -21 -21 -21 -21 -21 -21 -21 -21 -22 -22 -22 -22 -22 -22 -22 -23
-22 -22 -21 -21 -21 -21 -21 -21 -21 -20 -21 -21 -21 -21 -21 -21 -21 -21 -21 -21 -21 -22 -21 -21 -21 -22 -22 -22 -22 -22 -22 -22 -22 -22 -22 -22 -22 -22
-23 -23 -22 -22 -22 -22 -22 -22 -22 -22 -22 -22 -22 -22 -22 -22 -22 -22 -22 -22 -22 -22 -22 -22 -22 -22 -23 -23 -23 -23 -23 -23 -22 -22 -22 -23 -23 -23
-23 -23 -23 -23 -23 -23 -23 -23 -23 -23 -23 -23 -23 -23 -23 -23 -23 -23 -23 -23 -23 -23 -23 -23 -23 -23 -23 -23 -23 -23 -24 -24 -24 -24 -24 -25 -25 -25
-23 -23 -24 -24 -24 -24 -24 -23 -23 -23 -23 -23 -23 -23 -23 -23 -23 -23 -24 -24 -24 -24 -24 -24 -25 -25 -25 -26 -26 -25 -25 -26 -26 -27 -28 -28 -28 -28
-25 -25 -25 -25 -25 -25 -25 -25 -25 -24 -24 -24 -24 -24 -24 -24 -25 -25 -25 -25 -25 -26 -26 -27 -27 -27 -28 -28 -28 -29 -29 -29 -29 -30 -31 -30 -30 -31